Torna al catalogo

DELTA 1 DEB

AttivoSSO
NORAD 21437·DEBRIS·🇺🇸 United States

Lanciato Jun 12, 1975 da Vandenberg Space Force Base

Loading…

Prossimi Passaggi (prossime 24 ore)

TLE

AggiornatoSource: Space-Track

Epoca: Sep 13, 2026, 12:18 UTC

1 21437U 75052DV  26256.51284973  .00000080  00000-0  23841-3 0  9995
2 21437 100.1773 157.8293 0054834 240.1854 297.0914 13.37527418724221

Traccia DELTA 1 DEB in tempo reale con AllMySat

Download on the App Store